RUK64RG LOWS-LIPQ

Flight info

Callsign RUK64RG
Flight time 0h 39m
Altitude 27000
Route TITIG DCT BADIT DCT SI DCT GIMIX DCT OGODI DCT RIFEN
Aircraft B738/M-SDE2E3FGHIRWXY/LB1

Departure

Time 2026-04-10 21:17
Airport Salzburg Airport (LOWS)

Arrival

Time 2026-04-10 21:57
Airport Trieste Airport (LIPQ)
Time Latitude Longitude Altitude Speed Heading
2026-04-10 20:39 47.79167 12.99899 1421 ft 0 kts 282°
2026-04-10 21:01 47.79162 12.99935 1421 ft 4 kts 277°
2026-04-10 21:01 47.79160 12.99975 1421 ft 4 kts 265°
2026-04-10 21:01 47.79167 13.00009 1421 ft 4 kts 216°
2026-04-10 21:01 47.79175 13.00015 1421 ft 0 kts 157°
2026-04-10 21:06 47.79173 13.00016 1421 ft 1 kts 157°
2026-04-10 21:07 47.79139 13.00038 1421 ft 8 kts 157°
2026-04-10 21:07 47.79084 13.00072 1421 ft 9 kts 157°
2026-04-10 21:07 47.79030 13.00106 1421 ft 8 kts 157°
2026-04-10 21:07 47.78978 13.00141 1421 ft 8 kts 148°
2026-04-10 21:08 47.78957 13.00213 1421 ft 8 kts 95°
2026-04-10 21:08 47.78953 13.00292 1421 ft 8 kts 92°
2026-04-10 21:08 47.78940 13.00368 1419 ft 9 kts 131°
2026-04-10 21:08 47.78882 13.00412 1419 ft 9 kts 157°
2026-04-10 21:09 47.78822 13.00449 1419 ft 9 kts 157°
2026-04-10 21:09 47.78764 13.00486 1419 ft 9 kts 157°
2026-04-10 21:09 47.78707 13.00521 1420 ft 9 kts 157°
2026-04-10 21:09 47.78653 13.00556 1420 ft 8 kts 157°
2026-04-10 21:10 47.78599 13.00590 1421 ft 8 kts 157°
2026-04-10 21:10 47.78548 13.00622 1421 ft 8 kts 157°
2026-04-10 21:10 47.78498 13.00653 1420 ft 8 kts 157°
2026-04-10 21:10 47.78449 13.00684 1420 ft 7 kts 157°
2026-04-10 21:11 47.78402 13.00713 1420 ft 7 kts 157°
2026-04-10 21:11 47.78357 13.00741 1420 ft 7 kts 156°
2026-04-10 21:11 47.78313 13.00769 1420 ft 7 kts 157°
2026-04-10 21:11 47.78269 13.00797 1420 ft 7 kts 156°
2026-04-10 21:12 47.78230 13.00834 1420 ft 7 kts 142°
2026-04-10 21:12 47.78195 13.00885 1420 ft 8 kts 125°
2026-04-10 21:12 47.78185 13.00917 1418 ft 0 kts 107°
2026-04-10 21:14 47.78184 13.00921 1417 ft 2 kts 105°
2026-04-10 21:15 47.78205 13.01054 1417 ft 7 kts 60°
2026-04-10 21:15 47.78242 13.01084 1421 ft 7 kts 346°
2026-04-10 21:15 47.78286 13.01058 1417 ft 7 kts 337°
2026-04-10 21:15 47.78328 13.01031 1417 ft 7 kts 337°
2026-04-10 21:16 47.78360 13.01011 1415 ft 0 kts 337°
2026-04-10 21:16 47.78361 13.01010 1415 ft 0 kts 337°
2026-04-10 21:16 47.78366 13.01007 1415 ft 3 kts 337°
2026-04-10 21:16 47.78558 13.00885 1421 ft 67 kts 337°
2026-04-10 21:17 47.79216 13.00469 1420 ft 135 kts 337°
2026-04-10 21:17 47.80232 12.99836 1692 ft 168 kts 340°
2026-04-10 21:17 47.81321 12.99188 2629 ft 169 kts 340°
2026-04-10 21:17 47.82404 12.98463 3454 ft 175 kts 329°
2026-04-10 21:18 47.83235 12.96987 3798 ft 203 kts 297°
2026-04-10 21:18 47.83900 12.95007 4029 ft 226 kts 298°
2026-04-10 21:18 47.84647 12.92877 4469 ft 236 kts 298°
2026-04-10 21:18 47.85442 12.90677 4892 ft 251 kts 298°
2026-04-10 21:19 47.86301 12.88351 5453 ft 260 kts 299°
2026-04-10 21:19 47.87180 12.86007 6468 ft 256 kts 299°
2026-04-10 21:19 47.88055 12.83705 7444 ft 254 kts 299°
2026-04-10 21:19 47.88929 12.81424 8394 ft 253 kts 299°
2026-04-10 21:20 47.89798 12.79163 9381 ft 250 kts 299°
2026-04-10 21:20 47.90662 12.76917 10289 ft 252 kts 298°
2026-04-10 21:20 47.91600 12.74587 10558 ft 276 kts 305°
2026-04-10 21:20 47.93040 12.72489 10768 ft 303 kts 317°
2026-04-10 21:21 47.94701 12.70407 11177 ft 318 kts 317°
2026-04-10 21:21 47.96399 12.68256 11881 ft 322 kts 317°
2026-04-10 21:21 47.98102 12.66068 12712 ft 324 kts 317°
2026-04-10 21:21 47.99815 12.63866 13546 ft 327 kts 320°
2026-04-10 21:22 48.01826 12.62230 14302 ft 336 kts 340°
2026-04-10 21:22 48.04165 12.61739 15094 ft 346 kts 356°
2026-04-10 21:22 48.06567 12.62403 15873 ft 360 kts 14°
2026-04-10 21:22 48.08777 12.64333 16615 ft 380 kts 34°
2026-04-10 21:23 48.10461 12.67414 17322 ft 398 kts 52°
2026-04-10 21:23 48.11815 12.71081 18011 ft 409 kts 60°
2026-04-10 21:23 48.12512 12.75299 18597 ft 431 kts 83°
2026-04-10 21:23 48.12083 12.79786 19224 ft 444 kts 107°
2026-04-10 21:24 48.10575 12.83835 19839 ft 451 kts 130°
2026-04-10 21:24 48.08215 12.86887 20438 ft 451 kts 152°
2026-04-10 21:24 48.05319 12.88642 20968 ft 449 kts 168°
2026-04-10 21:24 48.02297 12.89912 21518 ft 453 kts 169°
2026-04-10 21:25 47.99238 12.91169 22057 ft 458 kts 169°
2026-04-10 21:25 47.96155 12.92467 22611 ft 462 kts 168°
2026-04-10 21:25 47.93052 12.93816 23177 ft 466 kts 168°
2026-04-10 21:25 47.89936 12.95203 23708 ft 469 kts 167°
2026-04-10 21:26 47.86806 12.96606 24192 ft 472 kts 168°
2026-04-10 21:26 47.83642 12.98018 24557 ft 477 kts 168°
2026-04-10 21:26 47.80456 12.99503 24924 ft 484 kts 165°
2026-04-10 21:26 47.77274 13.01221 25299 ft 489 kts 163°
2026-04-10 21:27 47.74089 13.03062 25693 ft 493 kts 162°
2026-04-10 21:27 47.70883 13.04958 26055 ft 498 kts 162°
2026-04-10 21:27 47.67650 13.06872 26485 ft 500 kts 162°
2026-04-10 21:27 47.64415 13.08770 26978 ft 502 kts 162°
2026-04-10 21:28 47.61144 13.10664 27177 ft 509 kts 163°
2026-04-10 21:28 47.57820 13.12566 27154 ft 514 kts 163°
2026-04-10 21:28 47.54512 13.14441 27133 ft 517 kts 163°
2026-04-10 21:28 47.51164 13.16343 27173 ft 515 kts 163°
2026-04-10 21:29 47.47816 13.18241 27141 ft 514 kts 163°
2026-04-10 21:29 47.44482 13.20138 27115 ft 513 kts 162°
2026-04-10 21:29 47.41163 13.22024 27143 ft 511 kts 163°
2026-04-10 21:29 47.37843 13.23904 27157 ft 511 kts 163°
2026-04-10 21:30 47.34516 13.25782 27137 ft 512 kts 163°
2026-04-10 21:30 47.31190 13.27656 27160 ft 512 kts 163°
2026-04-10 21:30 47.27853 13.29533 27138 ft 513 kts 163°
2026-04-10 21:30 47.24518 13.31407 27127 ft 514 kts 163°
2026-04-10 21:31 47.21174 13.33284 27129 ft 513 kts 162°
2026-04-10 21:31 47.17841 13.35153 27112 ft 515 kts 162°
2026-04-10 21:31 47.14490 13.37029 27131 ft 515 kts 162°
2026-04-10 21:31 47.11136 13.38904 27148 ft 516 kts 162°
2026-04-10 21:32 47.07776 13.40772 27141 ft 516 kts 163°
2026-04-10 21:32 47.04429 13.42631 27104 ft 512 kts 162°
2026-04-10 21:32 47.01105 13.44489 27120 ft 512 kts 162°
2026-04-10 21:32 46.97765 13.46352 27088 ft 514 kts 162°
2026-04-10 21:33 46.94419 13.48214 27109 ft 515 kts 162°
2026-04-10 21:33 46.91075 13.50071 27099 ft 510 kts 163°
2026-04-10 21:33 46.87815 13.51882 27060 ft 492 kts 163°
2026-04-10 21:33 46.84646 13.53639 26634 ft 485 kts 163°
2026-04-10 21:34 46.81496 13.55378 26133 ft 481 kts 163°
2026-04-10 21:34 46.78380 13.57094 25641 ft 479 kts 163°
2026-04-10 21:34 46.75244 13.58818 25163 ft 483 kts 163°
2026-04-10 21:34 46.72136 13.60526 24702 ft 484 kts 163°
2026-04-10 21:35 46.69001 13.62251 24238 ft 480 kts 163°
2026-04-10 21:35 46.65897 13.63957 23774 ft 473 kts 163°
2026-04-10 21:35 46.62835 13.65638 23254 ft 468 kts 163°
2026-04-10 21:35 46.59803 13.67299 22717 ft 463 kts 163°
2026-04-10 21:36 46.56903 13.69311 22142 ft 464 kts 148°
2026-04-10 21:36 46.54496 13.72393 21613 ft 462 kts 129°
2026-04-10 21:36 46.52806 13.76305 21118 ft 455 kts 110°
2026-04-10 21:36 46.51973 13.80675 20615 ft 445 kts 93°
2026-04-10 21:37 46.51784 13.85117 20179 ft 438 kts 86°
2026-04-10 21:37 46.51755 13.89516 19657 ft 434 kts 85°
2026-04-10 21:37 46.51761 13.93870 19183 ft 429 kts 85°
2026-04-10 21:37 46.51653 13.98188 18676 ft 431 kts 96°
2026-04-10 21:38 46.50588 14.02249 18214 ft 434 kts 121°
2026-04-10 21:38 46.48558 14.05460 17701 ft 433 kts 144°
2026-04-10 21:38 46.45887 14.07341 17162 ft 424 kts 169°
2026-04-10 21:38 46.43018 14.07901 16640 ft 411 kts 183°
2026-04-10 21:39 46.40207 14.07647 16120 ft 399 kts 196°
2026-04-10 21:39 46.37570 14.06616 15645 ft 389 kts 203°
2026-04-10 21:39 46.34995 14.05468 15143 ft 385 kts 203°
2026-04-10 21:39 46.32444 14.04333 14660 ft 381 kts 203°
2026-04-10 21:40 46.29915 14.03225 14152 ft 378 kts 202°
2026-04-10 21:40 46.27412 14.02141 13645 ft 374 kts 202°
2026-04-10 21:40 46.24928 14.01083 13152 ft 371 kts 202°
2026-04-10 21:40 46.22465 14.00037 12573 ft 368 kts 201°
2026-04-10 21:41 46.20018 13.99030 12107 ft 363 kts 201°
2026-04-10 21:41 46.17589 13.98080 11538 ft 362 kts 194°
2026-04-10 21:41 46.15162 13.97283 11050 ft 353 kts 202°
2026-04-10 21:41 46.12885 13.96047 10598 ft 347 kts 206°
2026-04-10 21:42 46.10605 13.94913 10092 ft 346 kts 200°
2026-04-10 21:42 46.08325 13.93979 9599 ft 344 kts 199°
2026-04-10 21:42 46.06032 13.93039 9066 ft 341 kts 200°
2026-04-10 21:42 46.03783 13.92085 8795 ft 332 kts 198°
2026-04-10 21:43 46.01584 13.91191 8473 ft 325 kts 198°
2026-04-10 21:43 45.99430 13.90294 8159 ft 318 kts 200°
2026-04-10 21:43 45.97523 13.88809 7830 ft 310 kts 222°
2026-04-10 21:43 45.96180 13.86464 7537 ft 302 kts 239°
2026-04-10 21:44 45.95128 13.83878 7240 ft 297 kts 241°
2026-04-10 21:44 45.94117 13.81311 6945 ft 294 kts 241°
2026-04-10 21:44 45.93113 13.78769 6645 ft 291 kts 240°
2026-04-10 21:44 45.92111 13.76256 6337 ft 288 kts 239°
2026-04-10 21:45 45.91115 13.73780 6071 ft 284 kts 239°
2026-04-10 21:45 45.90140 13.71370 5996 ft 273 kts 239°
2026-04-10 21:45 45.89204 13.69063 5977 ft 261 kts 239°
2026-04-10 21:45 45.88311 13.66865 5972 ft 249 kts 239°
2026-04-10 21:46 45.87461 13.64779 5980 ft 235 kts 239°
2026-04-10 21:46 45.86665 13.62827 5985 ft 221 kts 239°
2026-04-10 21:46 45.85903 13.60957 5995 ft 213 kts 239°
2026-04-10 21:46 45.85161 13.59126 5996 ft 210 kts 242°
2026-04-10 21:47 45.84691 13.57157 5992 ft 209 kts 257°
2026-04-10 21:47 45.84336 13.55128 5984 ft 211 kts 255°
2026-04-10 21:47 45.83954 13.53096 5985 ft 211 kts 255°
2026-04-10 21:47 45.83570 13.51091 5988 ft 212 kts 255°
2026-04-10 21:48 45.83174 13.49034 5979 ft 209 kts 255°
2026-04-10 21:48 45.82914 13.47060 5971 ft 201 kts 270°
2026-04-10 21:48 45.82941 13.45072 5982 ft 199 kts 271°
2026-04-10 21:48 45.82939 13.43082 5993 ft 204 kts 270°
2026-04-10 21:49 45.82927 13.40987 6004 ft 215 kts 269°
2026-04-10 21:49 45.82911 13.38822 6001 ft 218 kts 269°
2026-04-10 21:49 45.82895 13.36656 5984 ft 216 kts 269°
2026-04-10 21:49 45.82888 13.34511 5976 ft 215 kts 270°
2026-04-10 21:50 45.82890 13.32378 5978 ft 214 kts 270°
2026-04-10 21:50 45.82891 13.30252 5979 ft 213 kts 270°
2026-04-10 21:50 45.82892 13.28127 5982 ft 214 kts 270°
2026-04-10 21:50 45.82891 13.25979 5868 ft 215 kts 270°
2026-04-10 21:51 45.82878 13.23869 5614 ft 209 kts 264°
2026-04-10 21:51 45.82334 13.22021 5317 ft 201 kts 222°
2026-04-10 21:51 45.81120 13.21223 5075 ft 192 kts 182°
2026-04-10 21:51 45.80261 13.21378 4919 ft 186 kts 159°
2026-04-10 21:52 45.79256 13.22406 4676 ft 174 kts 127°
2026-04-10 21:52 45.78821 13.23946 4401 ft 165 kts 92°
2026-04-10 21:52 45.79305 13.25366 4087 ft 169 kts 41°
2026-04-10 21:52 45.80295 13.26371 3467 ft 179 kts 37°
2026-04-10 21:53 45.81321 13.27418 2852 ft 183 kts 34°
2026-04-10 21:53 45.82458 13.28256 2296 ft 181 kts 35°
2026-04-10 21:53 45.83086 13.29600 2113 ft 156 kts 87°
2026-04-10 21:53 45.82931 13.31034 1958 ft 139 kts 98°
2026-04-10 21:54 45.82878 13.32378 1804 ft 138 kts 91°
2026-04-10 21:54 45.82863 13.33748 1606 ft 135 kts 90°
2026-04-10 21:54 45.82854 13.35082 1424 ft 132 kts 90°
2026-04-10 21:54 45.82845 13.36402 1262 ft 133 kts 90°
2026-04-10 21:55 45.82838 13.37734 1068 ft 135 kts 90°
2026-04-10 21:55 45.82832 13.39075 878 ft 134 kts 90°
2026-04-10 21:55 45.82823 13.40396 682 ft 135 kts 90°
2026-04-10 21:55 45.82814 13.41733 480 ft 133 kts 90°
2026-04-10 21:56 45.82808 13.43056 320 ft 133 kts 90°
2026-04-10 21:56 45.82800 13.44377 158 ft 133 kts 90°
2026-04-10 21:56 45.82793 13.45664 49 ft 121 kts 91°
2026-04-10 21:56 45.82787 13.46593 44 ft 67 kts 91°
2026-04-10 21:57 45.82783 13.47210 48 ft 58 kts 90°
2026-04-10 21:57 45.82783 13.47519 46 ft 16 kts 90°
2026-04-10 21:57 45.82740 13.47676 46 ft 18 kts 135°
2026-04-10 21:57 45.82680 13.47751 45 ft 8 kts 140°
2026-04-10 21:58 45.82639 13.47799 45 ft 8 kts 141°
2026-04-10 21:58 45.82599 13.47846 45 ft 7 kts 141°
2026-04-10 21:58 45.82560 13.47891 45 ft 7 kts 139°
2026-04-10 21:58 45.82516 13.47944 45 ft 10 kts 139°
2026-04-10 21:59 45.82463 13.48009 45 ft 10 kts 140°
2026-04-10 21:59 45.82411 13.48072 45 ft 10 kts 140°
2026-04-10 21:59 45.82360 13.48133 45 ft 9 kts 140°
2026-04-10 21:59 45.82311 13.48193 45 ft 9 kts 140°
2026-04-10 22:00 45.82267 13.48257 45 ft 9 kts 127°
2026-04-10 22:00 45.82261 13.48343 45 ft 9 kts 82°
2026-04-10 22:00 45.82266 13.48399 45 ft 5 kts 97°
2026-04-10 22:00 45.82241 13.48423 45 ft 5 kts 164°
2026-04-10 22:01 45.82219 13.48431 42 ft 1 kts 169°
2026-04-10 22:01 45.82216 13.48431 43 ft 0 kts 170°